[[{"header":{"parameterUnit":"m.s-1","parameterCategory":1,"la1":30.2991,"la2":30.254,"lo1":-89.0895,"lo2":-89.0444,"dy":0.0017,"dx":0.0017,"nx":28,"ny":28,"refTime":"2025-11-29T03:00:00:Z","depth":0,"parameterNumber":2,"parameterNumberName":"U-component_of_WINDS"},"data":[0,0,0,0,0,0,0,0,0,0,0,0,0,0,0,0,0,0,0,0,0,0,0,0,0,0,0,0,0,0,0,0,0,0,0,0,0,0,0,0,0,0,0,0,0,0,0,0,0,0,0,0,0,0,0,0,0,0,-3.07,-3.0701,0,-3.0803,-3.0804,-3.0805,-3.076,-3.0757,-3.0755,-3.0752,-3.0859,-3.0864,-3.0869,0,0,0,0,0,0,0,0,0,0,0,0,0,-3.0467,-3.0471,-3.07,-3.0702,-3.0703,-3.0803,-3.0804,-3.0805,-3.076,-3.0757,-3.0754,-3.0751,-3.0857,-3.0863,-3.087,0,0,0,0,0,0,0,0,0,0,0,0,0,-3.0569,-3.0473,-3.07,-3.0692,-3.0692,-3.0802,-3.0804,-3.0806,-3.0761,-3.0757,-3.0753,-3.075,-3.0855,-3.0863,-3.087,-3.0995,0,0,-3.0894,-3.0898,0,0,0,0,0,0,0,0,-3.0563,-3.0577,-3.0692,-3.0693,-3.0693,-3.0764,-3.0761,-3.0869,-3.0762,-3.0735,-3.0752,-3.0748,-3.0831,-3.084,-3.0868,-3.0999,-3.1004,-3.0895,-3.09,-3.0903,-3.0905,0,0,0,0,0,0,0,-3.0556,-3.0572,-3.0741,-3.0694,-3.0695,-3.0684,-3.0694,-3.0781,-3.0803,-3.0737,-3.0734,-3.0746,-3.083,-3.086,-3.087,-3.1006,-3.0895,-3.0902,-3.0906,-3.0909,-3.1245,-3.1249,0,0,0,0,0,0,-3.0549,-3.0567,-3.0738,-3.0744,-3.0617,-3.0691,-3.0703,-3.0746,-3.0802,-3.0807,-3.075,-3.0744,-3.0849,-3.0861,-3.0874,-3.1023,-3.0903,-3.091,-3.0915,-3.124,-3.1246,-3.125,0,0,0,0,0,0,-3.0544,-3.0564,-3.0733,-3.0655,-3.0675,-3.0699,-3.0748,-3.075,-3.078,-3.0811,-3.0815,-3.0776,-3.0846,-3.0863,-3.0965,-3.1026,-3.0914,-3.0921,-3.1235,-3.1242,-3.1248,-3.1323,0,0,0,0,0,0,-3.0537,-3.0563,-3.061,-3.0656,-3.068,-3.0823,-3.0751,-3.0754,-3.0793,-3.0787,-3.0837,-3.0842,-3.0845,-3.0953,-3.0973,-3.1035,-3.0927,-3.123,-3.1238,-3.1246,-3.1316,-3.1331,-3.1345,0,0,0,0,0,-3.0529,-3.0628,-3.0613,-3.0634,-3.0739,-3.0826,-3.084,-3.084,-3.0798,-3.0846,-3.0866,-3.0841,-3.1016,-3.0964,-3.0985,-3.1051,-3.1226,-3.1236,-3.1245,-3.1309,-3.1328,-3.1345,0,0,0,0,0,0,-3.0589,-3.0633,-3.0617,-3.0734,-3.0777,-3.0819,-3.0879,-3.0861,-3.0917,-3.0909,-3.0907,-3.0919,-3.1025,-3.1048,-3.0989,-3.1174,-3.1115,-3.1129,-3.1156,-3.1175,-3.1189,-3.1182,-3.0933,0,0,0,0,0,-3.0615,-3.0682,-3.0717,-3.0817,-3.0839,-3.0855,-3.0893,-3.089,-3.0934,-3.0953,-3.098,-3.1025,-3.109,-3.1133,-3.1195,-3.1318,-3.1329,-3.1374,-3.1388,-3.14,-3.1413,-3.148,-3.1501,-3.1281,-3.1281,-3.1281,0,0,-3.0671,-3.0704,-3.0746,-3.0829,-3.0862,-3.0932,-3.0871,-3.0947,-3.0999,-3.0964,-3.1063,-3.1085,-3.1134,-3.1248,-3.1299,-3.127,-3.1476,-3.1412,-3.1422,-3.1428,-3.1492,-3.1513,-3.1532,-3.1288,-3.1287,-3.1286,0,0,-3.0809,-3.084,-3.0926,-3.096,-3.101,-3.1021,-3.1041,-3.1086,-3.1099,-3.1198,-3.1173,-3.1234,-3.1347,-3.1383,-3.1417,-3.1568,-3.1546,-3.1588,-3.1666,-3.1731,-3.1749,-3.1764,-3.1819,-3.1838,-3.16,-3.16,-3.16,0,-3.0873,-3.0976,-3.0973,-3.1052,-3.1089,-3.106,-3.1147,-3.118,-3.1249,-3.1276,-3.1242,-3.1382,-3.1413,-3.1535,-3.1572,-3.1599,-3.1623,-3.1583,-3.1746,-3.1762,-3.1776,-3.1828,-3.1849,-3.1605,-3.1604,-3.1604,-3.1603,0,-3.1052,-3.1125,-3.1188,-3.1254,-3.1299,-3.1381,-3.1391,-3.1437,-3.1429,-3.1443,-3.1543,-3.158,-3.1648,-3.1677,-3.167,-3.1798,-3.1778,-3.1746,-3.1686,-3.1802,-3.1851,-3.1871,-3.1612,-3.161,-3.1609,-3.1607,0,0,-3.1232,-3.1295,-3.1318,-3.1348,-3.1401,-3.1457,-3.1538,-3.1605,-3.1644,-3.1692,-3.1761,-3.1856,-3.1826,-3.1863,-3.186,-3.1918,-3.2036,-3.1878,-3.1879,-3.1907,-3.218,-3.2205,-3.2228,-3.2021,-3.2025,-3.2028,-3.2176,0,-3.1375,-3.1517,-3.1516,-3.1648,-3.1715,-3.1688,-3.1758,-3.1799,-3.1814,-3.1873,-3.1889,-3.1957,-3.1912,-3.1934,-3.199,-3.201,-3.2091,-3.1999,-3.2086,-3.209,-3.2076,-3.2254,-3.2281,-3.2419,-3.2195,-3.2198,-3.2201,0,-3.1561,-3.1614,-3.1753,-3.1796,-3.1824,-3.1888,-3.1949,-3.2005,-3.205,-3.2057,-3.2099,-3.2087,-3.217,-3.2106,-3.2221,-3.2159,-3.2194,-3.2209,-3.2215,-3.2224,-3.2153,-3.227,-3.2463,-3.2484,-3.2231,-3.2228,-3.2226,0,-3.168,-3.1786,-3.1883,-3.1909,-3.1961,-3.2007,-3.2031,-3.2072,-3.2112,-3.2165,-3.2191,-3.2253,-3.2288,-3.2337,-3.2342,-3.2295,-3.2458,-3.2395,-3.2467,-3.2467,-3.2504,-3.2502,-3.2707,-3.2524,-3.2524,-3.2523,-3.2523,0,-3.1841,-3.1927,-3.1937,-3.1997,-3.2092,-3.209,-3.2185,-3.2205,-3.2242,-3.2305,-3.2284,-3.2344,-3.2347,-3.2408,-3.2413,-3.2508,-3.2523,-3.2532,-3.2532,-3.2534,-3.2534,-3.2559,-3.255,-3.2529,-3.2528,-3.2527,-3.2526,0,-3.1991,-3.2001,-3.2105,-3.2145,-3.2157,-3.2226,-3.2261,-3.2318,-3.233,-3.2411,-3.2429,-3.2449,-3.252,-3.253,-3.2613,-3.2616,-3.273,-3.272,-3.2715,-3.2714,-3.2786,-3.278,-3.3016,-3.3047,-3.2843,-3.2845,-3.2847,0,-3.2093,-3.2159,-3.2206,-3.2247,-3.2273,-3.2339,-3.2379,-3.2379,-3.2423,-3.2479,-3.2529,-3.2598,-3.2653,-3.2768,-3.2791,-3.2854,-3.2846,-3.2924,-3.2856,-3.2856,-3.2849,-3.2845,-3.2852,-3.2938,-3.2941,-3.2942,-3.2944,0,-3.2275,-3.2276,-3.2335,-3.2397,-3.2445,-3.2494,-3.2539,-3.2573,-3.2579,-3.2629,-3.2701,-3.2744,-3.2828,-3.2898,-3.296,-3.2985,-3.2967,-3.2965,-3.2985,-3.2989,-3.2984,-3.2989,-3.2753,-3.296,-3.2958,-3.2957,-3.2956,-3.2956,-3.2405,-3.2462,-3.2505,-3.2571,-3.2605,-3.2648,-3.2703,-3.2722,-3.2782,-3.2851,-3.2847,-3.2927,-3.297,-3.3052,-3.3081,-3.3144,-3.3118,-3.3147,-3.3155,-3.3163,-3.317,-3.2973,-3.3155,-3.3155,-3.3154,-3.3154,-3.3153,0,-3.2587,-3.2612,-3.2673,-3.2737,-3.279,-3.2765,-3.2814,-3.286,-3.293,-3.2972,-3.3026,-3.3109,-3.3176,-3.3203,-3.3268,-3.3313,-3.3306,-3.333,-3.3328,-3.3334,-3.3189,-3.3165,-3.3335,-3.3335,-3.3335,-3.3335,-3.3335,-3.3335,-3.2688,-3.2783,-3.279,-3.2902,-3.2926,-3.3004,-3.3034,-3.3074,-3.3107,-3.32,-3.3255,-3.3272,-3.3307,-3.3375,-3.3435,-3.3441,-3.3467,-3.3495,-3.3498,-3.3362,-3.3344,-3.3327,-3.3305,-3.3501,-3.3501,-3.3638,-3.3639,-3.364]},{"header":{"parameterUnit":"m.s-1","parameterCategory":1,"la1":30.2991,"la2":30.254,"lo1":-89.0895,"lo2":-89.0444,"dy":0.0017,"dx":0.0017,"nx":28,"ny":28,"refTime":"2025-11-29T03:00:00:Z","depth":0,"parameterNumber":3,"parameterNumberName":"V-component_of_WINDS"},"data":[0,0,0,0,0,0,0,0,0,0,0,0,0,0,0,0,0,0,0,0,0,0,0,0,0,0,0,0,0,0,0,0,0,0,0,0,0,0,0,0,0,0,0,0,0,0,0,0,0,0,0,0,0,0,0,0,0,0,-7.5762,-7.5762,0,-7.5779,-7.5779,-7.5779,-7.5682,-7.5679,-7.5676,-7.5674,-7.5688,-7.5691,-7.5694,0,0,0,0,0,0,0,0,0,0,0,0,0,-7.5642,-7.5645,-7.5762,-7.5762,-7.5762,-7.5779,-7.5779,-7.5779,-7.5682,-7.5679,-7.5675,-7.5672,-7.5687,-7.5691,-7.5694,0,0,0,0,0,0,0,0,0,0,0,0,0,-7.568,-7.5646,-7.5762,-7.5716,-7.5712,-7.5778,-7.5779,-7.5779,-7.5683,-7.5679,-7.5675,-7.5671,-7.5686,-7.5691,-7.5695,-7.5806,0,0,-7.5709,-7.571,0,0,0,0,0,0,0,0,-7.5678,-7.5684,-7.5722,-7.5719,-7.5715,-7.5724,-7.5742,-7.5788,-7.5684,-7.5694,-7.5673,-7.5669,-7.5703,-7.5706,-7.5718,-7.5806,-7.5807,-7.5709,-7.5712,-7.5714,-7.5715,0,0,0,0,0,0,0,-7.5675,-7.5683,-7.5768,-7.5723,-7.5718,-7.5693,-7.5694,-7.575,-7.5722,-7.5693,-7.5686,-7.5689,-7.57,-7.5714,-7.5718,-7.5807,-7.5709,-7.5713,-7.5716,-7.5717,-7.5985,-7.5989,0,0,0,0,0,0,-7.5679,-7.5682,-7.5768,-7.5769,-7.5686,-7.5699,-7.57,-7.5725,-7.5721,-7.5716,-7.5693,-7.5684,-7.5709,-7.5713,-7.5718,-7.5846,-7.5714,-7.5718,-7.572,-7.5981,-7.5986,-7.5991,0,0,0,0,0,0,-7.5677,-7.5688,-7.5767,-7.5723,-7.5731,-7.5705,-7.5735,-7.5728,-7.5741,-7.5721,-7.5715,-7.5712,-7.5706,-7.5712,-7.5784,-7.5845,-7.572,-7.5724,-7.5976,-7.5982,-7.5989,-7.6105,0,0,0,0,0,0,-7.5674,-7.5688,-7.573,-7.5725,-7.5734,-7.5834,-7.5738,-7.5731,-7.575,-7.5739,-7.5738,-7.5733,-7.5703,-7.5778,-7.5789,-7.5849,-7.5727,-7.597,-7.5979,-7.5986,-7.6095,-7.6114,-7.6131,0,0,0,0,0,-7.567,-7.5762,-7.5733,-7.5744,-7.5787,-7.5838,-7.5843,-7.5807,-7.5755,-7.5797,-7.5783,-7.5733,-7.5837,-7.5787,-7.5798,-7.586,-7.5966,-7.5976,-7.5986,-7.6087,-7.6111,-7.613,0,0,0,0,0,0,-7.5774,-7.576,-7.5728,-7.5821,-7.5832,-7.5822,-7.5873,-7.5833,-7.5858,-7.5847,-7.58,-7.58,-7.5881,-7.5878,-7.5821,-7.5967,-7.5892,-7.5905,-7.5966,-7.5988,-7.6005,-7.6004,-7.5731,0,0,0,0,0,-7.5808,-7.5852,-7.5837,-7.5921,-7.5928,-7.59,-7.5921,-7.5892,-7.5901,-7.5904,-7.5896,-7.5906,-7.594,-7.5964,-7.5995,-7.6094,-7.6092,-7.6143,-7.6161,-7.6176,-7.6187,-7.6238,-7.626,-7.6024,-7.6024,-7.6024,0,0,-7.5879,-7.5876,-7.5907,-7.5941,-7.5946,-7.5991,-7.5904,-7.5956,-7.5988,-7.5912,-7.598,-7.5974,-7.5981,-7.6068,-7.6106,-7.6068,-7.6252,-7.6188,-7.62,-7.6203,-7.6251,-7.6273,-7.6293,-7.6031,-7.6029,-7.6028,0,0,-7.603,-7.6033,-7.6102,-7.6109,-7.6117,-7.6098,-7.6115,-7.6111,-7.6105,-7.6173,-7.6116,-7.6153,-7.6214,-7.6222,-7.6233,-7.6387,-7.6341,-7.6398,-7.6491,-7.6542,-7.656,-7.6576,-7.663,-7.665,-7.6409,-7.641,-7.641,0,-7.6116,-7.6182,-7.6143,-7.6198,-7.6215,-7.6148,-7.6217,-7.6225,-7.6243,-7.6255,-7.6213,-7.6288,-7.6288,-7.6375,-7.6412,-7.6425,-7.6441,-7.6398,-7.6561,-7.6577,-7.6591,-7.6642,-7.6662,-7.6417,-7.6416,-7.6415,-7.6414,0,-7.6287,-7.6334,-7.6389,-7.6408,-7.6431,-7.6493,-7.6462,-7.6489,-7.6459,-7.6444,-7.6513,-7.6511,-7.654,-7.6559,-7.6529,-7.6641,-7.6617,-7.6569,-7.6493,-7.6621,-7.6668,-7.6687,-7.6426,-7.6424,-7.6422,-7.642,0,0,-7.6504,-7.6501,-7.6522,-7.6529,-7.6533,-7.6568,-7.6627,-7.6656,-7.6679,-7.6694,-7.6741,-7.6794,-7.6749,-7.6763,-7.6733,-7.6778,-7.6898,-7.6724,-7.6723,-7.6755,-7.702,-7.7056,-7.7079,-7.6869,-7.6872,-7.6875,-7.7019,0,-7.665,-7.6751,-7.6717,-7.6819,-7.6861,-7.6798,-7.6849,-7.6856,-7.6844,-7.6877,-7.6863,-7.6901,-7.6839,-7.6847,-7.6889,-7.6875,-7.6951,-7.6864,-7.6911,-7.6913,-7.691,-7.7104,-7.7142,-7.7278,-7.7038,-7.7041,-7.7043,0,-7.6835,-7.6858,-7.6964,-7.696,-7.6976,-7.7023,-7.7046,-7.7079,-7.7086,-7.7073,-7.7089,-7.7049,-7.7105,-7.7031,-7.7106,-7.7048,-7.7065,-7.7062,-7.7066,-7.7068,-7.6985,-7.711,-7.7321,-7.7341,-7.7071,-7.7069,-7.7067,0,-7.6981,-7.7038,-7.7108,-7.7117,-7.7115,-7.7149,-7.7149,-7.7152,-7.7171,-7.7191,-7.7203,-7.7229,-7.7244,-7.7265,-7.7233,-7.7182,-7.7313,-7.7236,-7.7304,-7.7305,-7.7333,-7.7332,-7.7549,-7.7346,-7.7346,-7.7346,-7.7345,0,-7.7148,-7.7215,-7.7174,-7.7217,-7.729,-7.725,-7.7323,-7.7316,-7.7319,-7.7359,-7.7307,-7.7345,-7.7302,-7.7336,-7.7312,-7.7378,-7.7385,-7.7376,-7.7369,-7.738,-7.7381,-7.739,-7.7379,-7.7351,-7.735,-7.7349,-7.7348,0,-7.7324,-7.7299,-7.7371,-7.7363,-7.7363,-7.7417,-7.7409,-7.7448,-7.7432,-7.7483,-7.7493,-7.7468,-7.7505,-7.7476,-7.7513,-7.7497,-7.7584,-7.7563,-7.7582,-7.7576,-7.7644,-7.7638,-7.7874,-7.7902,-7.7683,-7.7685,-7.7687,0,-7.7431,-7.7481,-7.7479,-7.7502,-7.7506,-7.7544,-7.7564,-7.7526,-7.7548,-7.7559,-7.7597,-7.763,-7.7655,-7.7717,-7.7702,-7.7729,-7.7709,-7.779,-7.7712,-7.7722,-7.7709,-7.7706,-7.771,-7.7805,-7.7807,-7.781,-7.7811,0,-7.7625,-7.761,-7.764,-7.7666,-7.7691,-7.771,-7.7724,-7.7746,-7.7707,-7.7735,-7.7773,-7.7792,-7.783,-7.7863,-7.7885,-7.7884,-7.7842,-7.7836,-7.7853,-7.7864,-7.7873,-7.7868,-7.7623,-7.783,-7.7828,-7.7827,-7.7826,-7.7825,-7.7768,-7.781,-7.7814,-7.7849,-7.7856,-7.7871,-7.7907,-7.7895,-7.7927,-7.7954,-7.793,-7.7976,-7.798,-7.8006,-7.801,-7.8045,-7.8011,-7.8036,-7.8042,-7.8048,-7.8058,-7.7868,-7.8049,-7.8048,-7.8047,-7.8047,-7.8047,0,-7.7958,-7.7958,-7.7991,-7.8012,-7.804,-7.7998,-7.8011,-7.8037,-7.8078,-7.8086,-7.8111,-7.8154,-7.8186,-7.8173,-7.8201,-7.8231,-7.8212,-7.824,-7.8236,-7.8237,-7.8086,-7.8069,-7.8254,-7.8254,-7.8254,-7.8254,-7.8254,-7.8254,-7.806,-7.8127,-7.8113,-7.8182,-7.8181,-7.8225,-7.8237,-7.8249,-7.8255,-7.8306,-7.8333,-7.8324,-7.8323,-7.8351,-7.8378,-7.8373,-7.8385,-7.842,-7.8408,-7.8268,-7.8247,-7.8228,-7.8211,-7.8423,-7.8423,-7.8555,-7.8556,-7.8557]}]]